• Join FlightAware (Why Join?)
  • Login
  • US Flag GB Flag 
01:49 EDT


 

Airport Tracker/Info


-or-


 

Live Flight TrackerFlight Track Log ✈ DAL268 ✈ 10-Sep-2013 ✈ KSFO - KJFK

Flight Track Log - Related Links

Times and Time Zones

All times are in EDT time to prevent confusion due to time zone crossing. See the DAL268 flight status page for this flight to view local times or setup timezone preferences in your user account.

Time Position Orientation Groundspeed Altitude Reporting Facility
EDT Latitude Longitude Course Direction KTS MPH feet Rate Location/Type
14:23 37.6060 -122.3820 142° Southeast  Level FlightAware
14:25 37.6850 -122.1283 67° East  Level FlightAware Approximate
14:26 37.6110 -122.3780 67° East 94 108  Level FlightAware
14:27 37.6792 -122.1458 67° East  Level FlightAware Approximate
14:27 37.6170 -122.3740 28° Northeast 150 173  Level FlightAware
14:27 37.6301 -122.3650 29° Northeast 161 185 700 2,340 Climbing FlightAware ADS-B
14:27 37.6333 -122.3620 37° Northeast 166 191 900 1,980 Climbing FlightAware ADS-B
14:27 37.6391 -122.3560 39° Northeast 171 197 1,200 1,920 Climbing FlightAware ADS-B
14:27 37.6475 -122.3440 49° Northeast 191 220 1,700 1,500 Climbing FlightAware ADS-B
14:28 37.6572 -122.3300 49° Northeast 205 236 2,000 1,260 Climbing FlightAware ADS-B
14:28 37.6682 -122.3140 49° Northeast 237 273 2,400 1,860 Climbing FlightAware ADS-B
14:28 37.6785 -122.2990 49° Northeast 251 289 2,900 2,100 Climbing FlightAware ADS-B
14:28 37.6904 -122.2820 49° Northeast 266 306 3,400 2,100 Climbing FlightAware ADS-B
14:29 37.7064 -122.2590 49° Northeast 276 318 4,100 2,640 Climbing FlightAware ADS-B
14:29 37.7257 -122.2310 49° Northeast 275 316 5,300 2,880 Climbing FlightAware ADS-B
14:29 37.7403 -122.2100 49° Northeast 279 321 6,100 2,760 Climbing FlightAware ADS-B
14:30 37.7480 -122.1980 51° Northeast 286 329 6,500 3,000 Climbing FlightAware ADS-B
14:30 37.7528 -122.1880 59° Northeast 283 326 6,900 3,180 Climbing FlightAware ADS-B
14:30 37.7562 -122.1800 62° Northeast 282 325 7,200 3,120 Climbing FlightAware ADS-B
14:30 37.7645 -122.1570 65° Northeast 283 326 8,000 2,760 Climbing FlightAware ADS-B
14:30 37.7724 -122.1300 70° East 289 333 8,700 2,700 Climbing FlightAware ADS-B
14:31 37.7797 -122.1040 70° East 290 334 9,500 2,820 Climbing FlightAware ADS-B
14:31 37.7928 -122.0560 71° East 293 337 10,900 2,160 Climbing FlightAware ADS-B
14:32 37.8070 -122.0050 71° East 320 368 11,700 1,560 Climbing FlightAware ADS-B
14:32 37.8235 -121.9430 71° East 338 389 12,600 1,500 Climbing FlightAware ADS-B
14:33 37.8402 -121.8820 71° East 368 423 13,300 1,620 Climbing FlightAware ADS-B
14:33 37.8572 -121.8180 71° East 382 440 14,300 2,160 Climbing FlightAware ADS-B
14:34 37.8747 -121.7530 71° East 388 447 15,500 2,220 Climbing FlightAware ADS-B
14:34 37.8933 -121.6850 71° East 396 456 16,600 2,100 Climbing FlightAware ADS-B
14:35 37.9116 -121.6180 71° East 402 463 17,700 1,860 Climbing FlightAware ADS-B
14:35 37.9214 -121.5800 72° East 410 472 18,100 2,100 Climbing FlightAware ADS-B
14:36 37.9347 -121.5080 77° East 410 472 19,400 2,400 Climbing FlightAware ADS-B
14:36 37.9402 -121.4770 77° East 410 472 19,900 1,920 Climbing FlightAware ADS-B
14:36 37.9596 -121.3840 75° East 415 478 21,100 1,860 Climbing FlightAware ADS-B
14:37 37.9750 -121.3060 76° East 420 483 22,200 1,680 Climbing FlightAware
14:38 37.9910 -121.2240 76° East 429 494 23,000 1,440 Climbing FlightAware
14:38 38.0080 -121.1380 76° East 438 504 23,900 1,500 Climbing FlightAware
14:39 38.0220 -121.0640 76° East 445 512 24,600 1,500 Climbing FlightAware
14:39 38.0380 -120.9820 76° East 450 518 25,400 1,440 Climbing FlightAware
14:40 38.0570 -120.8840 76° East 457 526 26,300 1,440 Climbing FlightAware
14:40 38.0750 -120.7890 76° East 460 529 27,200 1,380 Climbing FlightAware
14:41 38.0900 -120.7050 77° East 464 534 27,900 1,320 Climbing FlightAware
14:42 38.1080 -120.6100 76° East 469 540 28,700 1,440 Climbing FlightAware
14:42 38.1260 -120.5100 77° East 467 537 29,700 1,620 Climbing FlightAware
14:43 38.1420 -120.4230 77° East 464 534 30,600 1,500 Climbing FlightAware
14:43 38.1590 -120.3310 77° East 461 531 31,400 1,500 Climbing FlightAware
14:44 38.1770 -120.2330 77° East 458 527 32,400 1,440 Climbing FlightAware
14:44 38.1920 -120.1490 77° East 457 526 33,100 1,260 Climbing FlightAware
14:45 38.2100 -120.0510 77° East 457 526 33,900 720 Climbing FlightAware
14:46 38.2270 -119.9570 77° East 459 528 34,000 60 Climbing FlightAware
14:46 38.2420 -119.8730 77° East 459 528 34,000  Level FlightAware
14:47 38.2570 -119.7870 77° East 458 527 34,000 60 Level FlightAware
14:47 38.2750 -119.6830 78° East 460 529 34,100 780 Climbing FlightAware
14:48 38.2920 -119.5890 77° East 454 522 35,000 1,380 Climbing FlightAware
14:49 38.3060 -119.5060 78° East 450 518 35,700 1,020 Climbing FlightAware
14:49 38.3220 -119.4170 77° East 451 519 36,200 840 Climbing FlightAware
14:50 38.3370 -119.3300 78° East 452 520 36,700 660 Climbing FlightAware
14:50 38.3540 -119.2310 78° East 452 520 37,000 240 Climbing FlightAware
14:51 38.3690 -119.1440 78° East 448 516 37,000  Level FlightAware
14:51 38.3850 -119.0500 78° East 445 512 37,000  Level FlightAware
14:52 38.4000 -118.9590 78° East 446 513 37,000  Level FlightAware
14:53 38.4140 -118.8770 78° East 446 513 37,000  Level FlightAware
14:53 38.4290 -118.7860 78° East 446 513 37,000  Level FlightAware
14:54 38.4450 -118.6940 77° East 446 513 37,000  Level FlightAware
14:54 38.4600 -118.6050 78° East 446 513 37,000  Level FlightAware
14:55 38.4750 -118.5110 78° East 447 514 37,000  Level FlightAware
14:56 38.4900 -118.4190 78° East 448 516 37,000  Level FlightAware
14:56 38.5060 -118.3250 78° East 450 518 37,000  Level FlightAware
14:57 38.5190 -118.2470 78° East 451 519 37,000  Level FlightAware
14:57 38.5340 -118.1540 78° East 452 520 37,000  Level FlightAware
14:58 38.5500 -118.0540 78° East 453 521 37,000  Level FlightAware
14:58 38.5640 -117.9640 79° East 454 522 37,000  Level FlightAware
14:59 38.5790 -117.8770 78° East 454 522 37,000  Level FlightAware
15:00 38.5920 -117.7970 78° East 454 522 37,000  Level FlightAware
15:00 38.6060 -117.7120 78° East 454 522 37,000  Level FlightAware
15:01 38.6220 -117.6020 79° East 678 780 37,000  Level FlightAware
15:02 38.6420 -117.4690 79° East 453 521 37,000  Level FlightAware
15:02 38.6540 -117.3890 79° East 453 521 37,000  Level FlightAware
15:03 38.6660 -117.3080 79° East 453 521 37,000  Level FlightAware
15:04 38.6790 -117.2250 79° East 453 521 37,000  Level FlightAware
15:04 38.7000 -117.0920 79° East 450 518 37,000  Level FlightAware
15:05 38.7140 -117.0000 79° East 449 517 37,000  Level FlightAware
15:05 38.7280 -116.9090 79° East 448 516 37,000  Level FlightAware
15:06 38.7400 -116.8310 79° East 447 514 37,000  Level FlightAware
15:06 38.7560 -116.7230 79° East 447 514 37,000  Level FlightAware
15:07 38.7680 -116.6410 79° East 447 514 37,000  Level FlightAware
15:08 38.7800 -116.5620 79° East 447 514 37,000  Level FlightAware
15:08 38.7930 -116.4800 78° East 447 514 37,000  Level FlightAware
15:09 38.8050 -116.4000 79° East 447 514 37,000  Level FlightAware
15:09 38.8170 -116.3180 79° East 447 514 37,000  Level FlightAware
15:10 38.8290 -116.2380 79° East 447 514 37,000  Level FlightAware
15:10 38.8370 -116.1850 79° East 447 514 37,000  Level FlightAware
15:11 38.8520 -116.0880 79° East 447 514 37,000  Level FlightAware
15:12 38.8640 -116.0080 79° East 447 514 37,000  Level FlightAware
15:12 38.8770 -115.9260 78° East 447 514 37,000  Level FlightAware
15:13 38.8890 -115.8440 79° East 447 514 37,000  Level FlightAware
15:14 38.9010 -115.7640 79° East 447 514 37,000  Level FlightAware
15:14 38.9130 -115.6820 79° East 447 514 37,000  Level FlightAware
15:15 38.9260 -115.6000 78° East 447 514 37,000  Level FlightAware
15:16 38.9380 -115.5180 79° East 447 514 37,000  Level FlightAware
15:16 38.9500 -115.4380 79° East 447 514 37,000  Level FlightAware
15:17 38.9986 -114.9981 79° East 450 518 37,000  Level Salt Lake Center
15:18 39.0203 -114.8381 80° East 452 520 37,000  Level Salt Lake Center
15:19 39.0406 -114.6808 81° East 449 517 37,000  Level Salt Lake Center
15:25 39.1480 -113.8290 81° East 453 521 37,000  Level FlightAware
15:25 39.1600 -113.7350 81° East 453 521 37,000  Level FlightAware
15:26 39.1720 -113.6290 82° East 454 522 37,000  Level FlightAware
15:27 39.1840 -113.5310 81° East 455 524 37,000  Level FlightAware
15:27 39.1950 -113.4410 81° East 456 525 37,000  Level FlightAware
15:28 39.2070 -113.3450 81° East 456 525 37,000  Level FlightAware
15:28 39.2160 -113.2670 82° East 456 525 37,000  Level FlightAware
15:29 39.2260 -113.1850 81° East 456 525 37,000  Level FlightAware
15:30 39.2360 -113.1050 81° East 456 525 37,000  Level FlightAware
15:30 39.2457 -113.0060 83° East 460 529 37,000  Level FlightAware ADS-B
15:30 39.2563 -112.9140 82° East 460 529 37,000  Level FlightAware ADS-B
15:31 39.2669 -112.8210 82° East 461 531 37,000  Level FlightAware ADS-B
15:31 39.2757 -112.7430 82° East 462 532 37,000  Level FlightAware ADS-B
15:32 39.2814 -112.6920 82° East 462 532 37,000  Level FlightAware ADS-B
15:32 39.2953 -112.5680 82° East 462 532 37,000  Level FlightAware ADS-B
15:33 39.3042 -112.5180 77° East 466 536 37,000  Level FlightAware ADS-B
15:33 39.3119 -112.4890 71° East 469 540 37,000  Level FlightAware ADS-B
15:33 39.3256 -112.4460 68° East 470 541 37,000  Level FlightAware ADS-B
15:34 39.3476 -112.3820 66° East 470 541 37,000  Level FlightAware ADS-B
15:34 39.3885 -112.2690 65° Northeast 470 541 37,000  Level FlightAware ADS-B
15:35 39.4199 -112.1850 64° Northeast 470 541 37,000  Level FlightAware ADS-B
15:35 39.4493 -112.1050 65° Northeast 468 539 37,000  Level FlightAware ADS-B
15:36 39.4774 -112.0290 64° Northeast 468 539 37,000  Level FlightAware ADS-B
15:37 39.5066 -111.9490 65° Northeast 467 537 37,000  Level FlightAware ADS-B
15:37 39.5416 -111.8520 65° Northeast 465 535 37,000  Level FlightAware ADS-B
15:38 39.5696 -111.7750 65° Northeast 463 533 37,000  Level FlightAware ADS-B
15:38 39.5963 -111.7010 65° Northeast 463 533 37,000  Level FlightAware ADS-B
15:39 39.6179 -111.6410 65° Northeast 463 533 37,000  Level FlightAware ADS-B
15:39 39.6259 -111.6190 65° Northeast 462 532 37,000  Level FlightAware ADS-B
15:40 39.6697 -111.4970 65° Northeast 463 533 37,000  Level FlightAware ADS-B
15:40 39.6996 -111.4140 65° Northeast 464 534 37,000  Level FlightAware ADS-B
15:41 39.7268 -111.3370 65° Northeast 464 534 37,000  Level FlightAware ADS-B
15:41 39.7444 -111.2880 65° Northeast 464 534 37,000  Level FlightAware ADS-B
15:42 39.7830 -111.1790 65° Northeast 467 537 37,000  Level FlightAware ADS-B
15:42 39.8146 -111.0900 65° Northeast 467 537 37,000  Level FlightAware ADS-B
15:43 39.8448 -111.0040 65° Northeast 468 539 37,000  Level FlightAware ADS-B
15:43 39.8704 -110.9310 65° Northeast 468 539 37,000  Level FlightAware ADS-B
15:44 39.9124 -110.8120 65° Northeast 468 539 37,000  Level FlightAware ADS-B
15:45 39.9395 -110.7340 66° East 468 539 37,000  Level FlightAware ADS-B
15:45 39.9810 -110.6150 65° Northeast 467 537 37,000  Level FlightAware
15:46 40.0090 -110.5350 65° Northeast 467 537 37,000  Level FlightAware
15:46 40.0420 -110.4380 66° East 466 536 37,000  Level FlightAware
15:47 40.0720 -110.3530 65° Northeast 466 536 37,000  Level FlightAware
15:48 40.1070 -110.2510 66° East 465 535 37,000  Level FlightAware
15:48 40.1340 -110.1720 66° East 465 535 37,000  Level FlightAware
15:49 40.1620 -110.0820 68° East 463 533 37,000  Level FlightAware
15:49 40.1960 -109.9670 69° East 462 532 37,000  Level FlightAware
15:50 40.2220 -109.8790 69° East 464 534 37,000  Level FlightAware
15:51 40.2510 -109.7790 69° East 464 534 37,000  Level FlightAware
15:51 40.2710 -109.7090 69° East 466 536 37,000  Level FlightAware
15:52 40.3020 -109.6020 69° East 466 536 37,000  Level FlightAware
15:52 40.3180 -109.5470 69° East 466 536 37,000  Level FlightAware
15:53 40.3500 -109.4330 70° East 467 537 37,000  Level FlightAware
15:53 40.3750 -109.3470 69° East 468 539 37,000  Level FlightAware
15:54 40.4030 -109.2470 70° East 469 540 37,000  Level FlightAware
15:55 40.4280 -109.1590 70° East 469 540 37,000  Level FlightAware
15:55 40.4580 -109.0550 69° East 470 541 37,000  Level FlightAware
15:56 40.4810 -108.9710 70° East 471 542 37,000  Level FlightAware
15:56 40.5050 -108.8860 70° East 472 543 37,000  Level FlightAware
15:57 40.5340 -108.7830 70° East 473 544 37,000  Level FlightAware
15:58 40.5620 -108.6830 70° East 472 543 37,000  Level FlightAware
15:58 40.5840 -108.6020 70° East 472 543 37,000  Level FlightAware
15:59 40.6140 -108.4950 70° East 474 545 37,000  Level FlightAware
15:59 40.6410 -108.3980 70° East 476 548 37,000  Level FlightAware
16:00 40.6680 -108.2970 71° East 478 550 37,000  Level FlightAware
16:01 40.6930 -108.2070 70° East 481 554 37,000  Level FlightAware
16:01 40.7210 -108.1040 70° East 485 558 37,000  Level FlightAware
16:02 40.7480 -108.0040 70° East 488 562 37,000  Level FlightAware
16:02 40.7760 -107.9020 70° East 491 565 37,000  Level FlightAware
16:03 40.8030 -107.8010 71° East 494 568 37,000  Level FlightAware
16:04 40.8340 -107.6860 70° East 497 572 37,000  Level FlightAware
16:04 40.8630 -107.5750 71° East 500 575 37,000  Level FlightAware
16:05 40.8880 -107.4830 70° East 500 575 37,000  Level FlightAware
16:05 40.9130 -107.3920 70° East 500 575 37,000  Level FlightAware
16:06 40.9380 -107.2930 71° East 502 578 37,000  Level FlightAware
16:07 40.9630 -107.2030 70° East 502 578 37,000  Level FlightAware
16:07 40.9880 -107.1140 70° East 502 578 37,000  Level FlightAware
16:08 41.0120 -107.0260 70° East 502 578 37,000  Level FlightAware
16:08 41.0360 -106.9370 70° East 502 578 37,000  Level FlightAware
16:09 41.0750 -106.7660 73° East 503 579 37,000  Level FlightAware
16:09 41.1020 -106.6600 71° East 503 579 37,000  Level FlightAware
16:10 41.1290 -106.5550 71° East 505 581 37,000  Level FlightAware
16:11 41.1590 -106.4360 71° East 505 581 37,000  Level FlightAware
16:11 41.1930 -106.3030 71° East 505 581 37,000  Level FlightAware
16:12 41.2170 -106.2080 71° East 504 580 37,000  Level FlightAware
16:13 41.2430 -106.1050 71° East 502 578 37,000  Level FlightAware
16:13 41.2700 -105.9940 72° East 499 574 37,000  Level FlightAware
16:14 41.2970 -105.8880 71° East 496 571 37,000  Level FlightAware
16:14 41.3190 -105.7970 72° East 495 570 37,000  Level FlightAware
16:15 41.3440 -105.6950 72° East 494 568 37,000  Level FlightAware
16:16 41.3710 -105.5900 71° East 493 567 37,000  Level FlightAware
16:16 41.3960 -105.4970 70° East 493 567 37,000  Level FlightAware
16:17 41.4230 -105.3900 71° East 492 566 37,000  Level FlightAware
16:17 41.4500 -105.2870 71° East 492 566 37,000  Level FlightAware
16:18 41.4740 -105.1940 71° East 493 567 37,000  Level FlightAware
16:18 41.4980 -105.0970 72° East 494 568 37,000  Level FlightAware
16:19 41.5240 -104.9970 71° East 495 570 37,000  Level FlightAware
16:20 41.5510 -104.8870 72° East 496 571 37,000  Level FlightAware
16:20 41.5770 -104.7850 71° East 497 572 37,000  Level FlightAware
16:21 41.6040 -104.6770 71° East 498 573 37,000  Level FlightAware
16:21 41.6260 -104.5870 72° East 500 575 37,000  Level FlightAware
16:22 41.6540 -104.4760 71° East 502 578 37,000  Level FlightAware
16:23 41.6800 -104.3700 72° East 502 578 37,000  Level FlightAware
16:23 41.7030 -104.2770 72° East 502 578 37,000  Level FlightAware
16:24 41.7280 -104.1710 72° East 501 577 37,000  Level FlightAware
16:24 41.7530 -104.0720 71° East 501 577 37,000  Level FlightAware
16:25 41.7790 -103.9650 72° East 500 575 37,000  Level FlightAware
16:25 41.8020 -103.8680 72° East 499 574 37,000  Level FlightAware
16:26 41.8280 -103.7590 72° East 498 573 37,000  Level FlightAware
16:27 41.8530 -103.6560 72° East 497 572 37,000  Level FlightAware
16:27 41.8810 -103.5360 73° East 497 572 37,000  Level FlightAware
16:28 41.9010 -103.4320 75° East 495 570 37,000  Level FlightAware
16:28 41.9150 -103.3370 79° East 494 568 37,000  Level FlightAware
16:29 41.9320 -103.2160 79° East 494 568 37,000  Level FlightAware
16:30 41.9450 -103.1270 79° East 493 567 37,000  Level FlightAware
16:30 41.9580 -103.0320 80° East 493 567 37,000  Level FlightAware
16:31 41.9800 -102.8690 80° East 492 566 37,000  Level FlightAware
16:32 41.9940 -102.7740 79° East 492 566 37,000  Level FlightAware
16:32 42.0070 -102.6820 79° East 492 566 37,000  Level FlightAware
16:33 42.0200 -102.5900 79° East 492 566 37,000  Level FlightAware
16:34 42.0330 -102.5030 79° East 492 566 37,000  Level FlightAware
16:34 42.0460 -102.4110 79° East 492 566 37,000  Level FlightAware
16:35 42.0590 -102.3190 79° East 492 566 37,000  Level FlightAware
16:35 42.0730 -102.2270 78° East 492 566 37,000  Level FlightAware
16:36 42.0860 -102.1350 79° East 492 566 37,000  Level FlightAware
16:37 42.0990 -102.0430 79° East 492 566 37,000  Level FlightAware
16:37 42.1120 -101.9560 79° East 492 566 37,000  Level FlightAware
16:38 42.1250 -101.8640 79° East 492 566 37,000  Level FlightAware
16:38 42.1380 -101.7710 79° East 492 566 37,000  Level FlightAware
16:39 42.1520 -101.6790 78° East 492 566 37,000  Level FlightAware
16:39 42.1650 -101.5870 79° East 492 566 37,000  Level FlightAware
16:40 42.1780 -101.4950 79° East 492 566 37,000  Level FlightAware
16:41 42.2136 -101.0422 79° East 492 566 37,000  Level Denver Center
16:48 42.3482 -99.8663 79° East 496 571 37,000  Level FlightAware ADS-B
16:48 42.3586 -99.7709 82° East 496 571 37,000  Level FlightAware ADS-B
16:49 42.3690 -99.6747 82° East 496 571 37,000  Level FlightAware ADS-B
16:49 42.3792 -99.5791 82° East 497 572 37,000  Level FlightAware ADS-B
16:50 42.3893 -99.4832 82° East 497 572 37,000  Level FlightAware ADS-B
16:50 42.3992 -99.3897 82° East 497 572 37,000  Level FlightAware ADS-B
16:51 42.4151 -99.2368 82° East 497 572 37,000  Level FlightAware ADS-B
16:52 42.4289 -99.1015 82° East 497 572 37,000  Level FlightAware ADS-B
16:52 42.4385 -99.0080 82° East 496 571 37,000  Level FlightAware ADS-B
16:53 42.4477 -98.9161 82° East 496 571 37,000  Level FlightAware ADS-B
16:53 42.4572 -98.8216 82° East 495 570 37,000  Level FlightAware ADS-B
16:54 42.4662 -98.7283 83° East 496 571 37,000  Level FlightAware ADS-B
16:55 42.4837 -98.4263 85° East 494 568 37,000  Level FlightAware ADS-B
16:56 42.4882 -98.3329 86° East 495 570 37,000  Level FlightAware ADS-B
16:56 42.4927 -98.2380 86° East 495 570 37,000  Level FlightAware ADS-B
16:57 42.4970 -98.1439 86° East 495 570 37,000  Level FlightAware ADS-B
16:57 42.5014 -98.0498 86° East 495 570 37,000  Level FlightAware ADS-B
16:58 42.5023 -98.0291 87° East 495 570 37,000  Level FlightAware ADS-B
16:58 42.5078 -97.9075 86° East 495 570 37,000  Level FlightAware ADS-B
16:59 42.5119 -97.8147 87° East 496 571 37,000  Level FlightAware ADS-B
16:59 42.5160 -97.7191 87° East 496 571 37,000 60 Level FlightAware ADS-B
17:00 42.5201 -97.6238 87° East 497 572 37,100 660 Climbing FlightAware ADS-B
17:00 42.5240 -97.5303 87° East 496 571 37,700 1,140 Climbing FlightAware ADS-B
17:01 42.5278 -97.4356 87° East 493 567 38,300 1,140 Climbing FlightAware ADS-B
17:01 42.5315 -97.3430 87° East 490 564 38,900 660 Climbing FlightAware ADS-B
17:02 42.5351 -97.2499 87° East 484 557 39,000 60 Climbing FlightAware ADS-B
17:02 42.5385 -97.1597 87° East 476 548 39,000  Level FlightAware ADS-B
17:03 42.5419 -97.0705 87° East 476 548 39,000  Level FlightAware ADS-B
17:03 42.5453 -96.9804 87° East 480 552 39,000  Level FlightAware ADS-B
17:04 42.5486 -96.8879 87° East 481 554 39,000  Level FlightAware ADS-B
17:04 42.5519 -96.7946 87° East 484 557 39,000  Level FlightAware ADS-B
17:05 42.5554 -96.6920 87° East 485 558 39,000  Level FlightAware ADS-B
17:05 42.5584 -96.5998 87° East 487 560 39,000  Level FlightAware ADS-B
17:06 42.5614 -96.5084 87° East 488 562 39,000  Level FlightAware ADS-B
17:06 42.5643 -96.4148 88° East 490 564 39,000  Level FlightAware ADS-B
17:07 42.5672 -96.3208 88° East 492 566 39,000  Level FlightAware ADS-B
17:07 42.5701 -96.2282 88° East 492 566 39,000  Level FlightAware ADS-B
17:08 42.5728 -96.1336 88° East 493 567 39,000  Level FlightAware ADS-B
17:08 42.5756 -96.0363 88° East 492 566 39,000  Level FlightAware ADS-B
17:09 42.5782 -95.9422 88° East 492 566 39,000  Level FlightAware ADS-B
17:09 42.5807 -95.8487 88° East 492 566 39,000  Level FlightAware ADS-B
17:10 42.5831 -95.7559 88° East 491 565 39,000  Level FlightAware ADS-B
17:11 42.5855 -95.6625 88° East 489 563 39,000  Level FlightAware ADS-B
17:11 42.5877 -95.5705 88° East 488 562 39,000  Level FlightAware ADS-B
17:12 42.5899 -95.4786 88° East 486 559 39,000  Level FlightAware ADS-B
17:12 42.5919 -95.3864 88° East 484 557 39,000  Level FlightAware ADS-B
17:13 42.5939 -95.2949 88° East 483 556 39,000  Level FlightAware ADS-B
17:13 42.5960 -95.1989 88° East 482 555 39,000  Level FlightAware ADS-B
17:14 42.5979 -95.1064 88° East 481 554 39,000  Level FlightAware ADS-B
17:14 42.5997 -95.0126 88° East 480 552 39,000  Level FlightAware ADS-B
17:15 42.6014 -94.9211 89° East 480 552 39,000  Level FlightAware ADS-B
17:15 42.6030 -94.8305 89° East 480 552 39,000  Level FlightAware ADS-B
17:16 42.6046 -94.7363 89° East 480 552 39,000  Level FlightAware ADS-B
17:16 42.6061 -94.6457 89° East 480 552 39,000  Level FlightAware ADS-B
17:17 42.6075 -94.5554 89° East 479 551 39,000  Level FlightAware ADS-B
17:17 42.6088 -94.4628 89° East 479 551 39,000  Level FlightAware ADS-B
17:18 42.6101 -94.3728 89° East 478 550 39,000  Level FlightAware ADS-B
17:18 42.6114 -94.2708 89° East 478 550 39,000  Level FlightAware ADS-B
17:19 42.6124 -94.1657 89° East 477 549 39,000  Level FlightAware ADS-B
17:19 42.6131 -94.0649 89° East 477 549 39,000  Level FlightAware ADS-B
17:20 42.6138 -93.9747 89° East 475 547 39,000  Level FlightAware ADS-B
17:20 42.6144 -93.8852 89° East 475 547 39,000  Level FlightAware ADS-B
17:21 42.6149 -93.7920 90° East 474 545 39,000  Level FlightAware ADS-B
17:21 42.6154 -93.7000 90° East 474 545 39,000  Level FlightAware ADS-B
17:22 42.6160 -93.5940 90° East 474 545 39,000  Level FlightAware
17:23 42.6160 -93.4840 90° East 475 547 39,000  Level FlightAware
17:23 42.6160 -93.3870 90° East 475 547 39,000  Level FlightAware
17:24 42.6170 -93.2860 89° East 475 547 39,000  Level FlightAware
17:24 42.6170 -93.1750 90° East 476 548 39,000  Level FlightAware
17:25 42.6170 -93.0730 90° East 476 548 39,000  Level FlightAware
17:26 42.6160 -92.9610 91° East 477 549 39,000  Level FlightAware
17:26 42.6160 -92.8660 90° East 478 550 39,000  Level FlightAware
17:27 42.6160 -92.7540 90° East 479 551 39,000  Level FlightAware
17:27 42.6150 -92.6450 91° East 479 551 39,000  Level FlightAware
17:28 42.6150 -92.5520 90° East 479 551 39,000  Level FlightAware
17:28 42.6140 -92.4410 91° East 480 552 39,000  Level FlightAware
17:29 42.6140 -92.3330 90° East 480 552 39,000  Level FlightAware
17:30 42.6130 -92.2390 91° East 480 552 39,000  Level FlightAware
17:30 42.6120 -92.1350 91° East 480 552 39,000  Level FlightAware
17:31 42.6110 -92.0330 91° East 480 552 39,000  Level FlightAware
17:31 42.6100 -91.9240 91° East 480 552 39,000  Level FlightAware
17:32 42.6090 -91.8170 91° East 480 552 39,000  Level FlightAware
17:33 42.6070 -91.7020 91° East 481 554 39,000  Level FlightAware
17:33 42.6060 -91.6130 91° East 480 552 39,000  Level FlightAware
17:34 42.6040 -91.4920 91° East 481 554 39,000  Level FlightAware
17:34 42.6030 -91.3700 91° East 482 555 39,000  Level FlightAware
17:35 42.6010 -91.2630 91° East 483 556 39,000  Level FlightAware
17:36 42.5990 -91.1610 91° East 483 556 39,000  Level FlightAware
17:36 42.5970 -91.0560 91° East 484 557 39,000  Level FlightAware
17:37 42.5950 -90.9320 91° East 486 559 39,000  Level FlightAware
17:37 42.5930 -90.8210 91° East 487 560 39,000  Level FlightAware
17:38 42.5910 -90.7210 92° East 489 563 39,000  Level FlightAware
17:39 42.5880 -90.6060 92° East 491 565 39,000  Level FlightAware
17:39 42.5860 -90.5000 91° East 493 567 39,000  Level FlightAware
17:40 42.5830 -90.3960 92° East 494 568 39,000  Level FlightAware
17:40 42.5800 -90.2800 92° East 494 568 39,000  Level FlightAware
17:41 42.5780 -90.1770 91° East 494 568 39,000  Level FlightAware
17:42 42.5750 -90.0680 92° East 493 567 39,000  Level FlightAware
17:42 42.5720 -89.9540 92° East 493 567 39,000  Level FlightAware
17:43 42.5690 -89.8560 92° East 493 567 39,000  Level FlightAware
17:43 42.5650 -89.7420 93° East 493 567 39,000  Level FlightAware
17:44 42.5620 -89.6300 92° East 492 566 39,000  Level FlightAware
17:44 42.5590 -89.5270 92° East 493 567 39,000  Level FlightAware
17:45 42.5550 -89.4240 93° East 492 566 39,000  Level FlightAware
17:46 42.5520 -89.3110 92° East 491 565 39,000  Level FlightAware
17:46 42.5480 -89.2030 93° East 491 565 39,000  Level FlightAware
17:47 42.5440 -89.0970 93° East 489 563 39,000  Level FlightAware
17:47 42.5400 -88.9830 93° East 488 562 39,000  Level FlightAware
17:48 42.5370 -88.8900 92° East 488 562 39,000  Level FlightAware
17:48 42.5330 -88.7790 93° East 487 560 39,000  Level FlightAware
17:49 42.5280 -88.6680 93° East 487 560 39,000  Level FlightAware
17:50 42.5240 -88.5620 93° East 488 562 39,000  Level FlightAware
17:50 42.5200 -88.4650 93° East 488 562 39,000  Level FlightAware
17:51 42.5160 -88.3570 93° East 488 562 39,000  Level FlightAware
17:51 42.5100 -88.2370 94° East 487 560 39,000  Level FlightAware
17:52 42.5060 -88.1320 93° East 487 560 39,000  Level FlightAware
17:53 42.5020 -88.0280 93° East 488 562 39,000  Level FlightAware
17:53 42.5000 -87.9290 92° East 489 563 39,000  Level FlightAware
17:54 42.5000 -87.8180 90° East 489 563 39,000  Level FlightAware
17:54 42.5000 -87.6930 90° East 490 564 39,000  Level FlightAware
17:55 42.4990 -87.5870 91° East 490 564 39,000  Level FlightAware
17:56 42.4990 -87.4780 90° East 492 566 39,000  Level FlightAware
17:56 42.4980 -87.3620 91° East 492 566 39,000  Level FlightAware
17:57 42.4980 -87.2530 90° East 492 566 39,000  Level FlightAware
17:58 42.4970 -87.1260 91° East 492 566 39,000  Level FlightAware
17:58 42.4960 -87.0280 91° East 491 565 39,000  Level FlightAware
17:59 42.4950 -86.9160 91° East 491 565 39,000  Level FlightAware
17:59 42.4940 -86.8030 91° East 492 566 39,000  Level FlightAware
18:00 42.4930 -86.7160 91° East 492 566 39,000  Level FlightAware
18:00 42.4920 -86.5940 91° East 491 565 39,000  Level FlightAware
18:01 42.4900 -86.4890 91° East 491 565 39,000  Level FlightAware
18:02 42.4890 -86.3910 91° East 490 564 39,000  Level FlightAware
18:02 42.4880 -86.2780 91° East 489 563 39,000  Level FlightAware
18:03 42.4860 -86.1650 91° East 488 562 39,000  Level FlightAware
18:03 42.4840 -86.0530 91° East 488 562 39,000  Level FlightAware
18:04 42.4830 -85.9660 91° East 487 560 39,000  Level FlightAware
18:04 42.4800 -85.8490 92° East 487 560 39,000  Level FlightAware
18:05 42.4780 -85.7290 91° East 487 560 39,000  Level FlightAware
18:06 42.4760 -85.6290 92° East 486 559 39,000  Level FlightAware
18:06 42.4740 -85.5260 91° East 486 559 39,000  Level FlightAware
18:07 42.4710 -85.4120 92° East 487 560 39,000  Level FlightAware
18:07 42.4690 -85.3170 92° East 486 559 39,000  Level FlightAware
18:08 42.4670 -85.2070 91° East 486 559 39,000  Level FlightAware
18:09 42.4640 -85.0950 92° East 487 560 39,000  Level FlightAware
18:09 42.4610 -84.9850 92° East 488 562 39,000  Level FlightAware
18:10 42.4590 -84.8890 92° East 488 562 39,000  Level FlightAware
18:10 42.4560 -84.7790 92° East 488 562 39,000  Level FlightAware
18:11 42.4530 -84.6690 92° East 488 562 39,000  Level FlightAware
18:11 42.4500 -84.5700 92° East 487 560 39,000  Level FlightAware
18:12 42.4470 -84.4660 92° East 486 559 39,000  Level FlightAware
18:13 42.4430 -84.3530 93° East 484 557 39,000  Level FlightAware
18:13 42.4390 -84.2420 93° East 483 556 39,000  Level FlightAware
18:14 42.4360 -84.1490 92° East 482 555 39,000  Level FlightAware
18:14 42.4330 -84.0380 92° East 481 554 39,000 -180 Level FlightAware
18:15 42.4290 -83.9330 93° East 476 548 38,800 -600 Descending FlightAware
18:16 42.4250 -83.8310 93° East 472 543 38,300 -1,140 Descending FlightAware
18:16 42.4220 -83.7270 92° East 476 548 37,500 -1,140 Descending FlightAware
18:17 42.4170 -83.6180 94° East 476 548 37,000 -480 Descending FlightAware
18:17 42.4140 -83.5160 92° East 474 545 37,000  Level FlightAware
18:18 42.4090 -83.4110 94° East 474 545 37,000  Level FlightAware
18:18 42.4050 -83.3110 93° East 477 549 37,000  Level FlightAware
18:19 42.4010 -83.2040 93° East 479 551 37,000  Level FlightAware
18:20 42.3970 -83.1070 93° East 481 554 37,000  Level FlightAware
18:20 42.3920 -82.9970 93° East 483 556 37,000  Level FlightAware
18:21 42.4030 -82.8960 82° East 478 550 37,000  Level FlightAware
18:21 42.4220 -82.8390 66° East 473 544 37,000  Level FlightAware
18:22 42.4670 -82.7460 57° Northeast 471 542 37,000  Level FlightAware
18:22 42.5100 -82.6620 55° Northeast 472 543 37,000  Level FlightAware
18:23 42.5470 -82.5880 56° Northeast 473 544 37,000  Level FlightAware
18:23 42.5920 -82.4980 56° Northeast 473 544 37,000  Level FlightAware
18:24 42.6290 -82.4250 55° Northeast 473 544 37,000  Level FlightAware
18:25 42.6780 -82.3290 55° Northeast 472 543 37,000  Level FlightAware
18:25 42.7110 -82.2400 63° Northeast 477 549 37,000  Level FlightAware
18:26 42.7140 -82.1180 88° East 478 550 37,000  Level FlightAware
18:27 42.6940 -82.0050 104° East 477 549 37,000  Level FlightAware
18:27 42.6730 -81.8860 103° East 476 548 37,000  Level FlightAware
18:28 42.6550 -81.7820 103° East 475 547 37,000  Level FlightAware
18:28 42.6370 -81.6860 104° East 475 547 37,000  Level FlightAware
18:29 42.6160 -81.5660 103° East 475 547 37,000  Level FlightAware
18:30 42.5980 -81.4710 104° East 474 545 37,000  Level FlightAware
18:30 42.5810 -81.3660 102° East 475 547 37,000  Level FlightAware
18:31 42.5650 -81.2630 102° East 475 547 37,000  Level FlightAware
18:32 42.5450 -81.1410 103° East 474 545 37,000  Level FlightAware
18:32 42.5290 -81.0440 103° East 473 544 37,000  Level FlightAware
18:33 42.5110 -80.9400 103° East 474 545 37,000  Level FlightAware
18:33 42.4940 -80.8400 103° East 473 544 37,000  Level FlightAware
18:34 42.4770 -80.7390 103° East 473 544 37,000  Level FlightAware
18:34 42.4600 -80.6400 103° East 473 544 37,000  Level FlightAware
18:35 42.4430 -80.5410 103° East 473 544 37,000  Level FlightAware
18:36 42.4250 -80.4400 104° East 472 543 37,000  Level FlightAware
18:36 42.4080 -80.3360 102° East 471 542 37,000  Level FlightAware
18:37 42.3900 -80.2360 104° East 471 542 37,000  Level FlightAware
18:37 42.3720 -80.1360 104° East 469 540 37,000  Level FlightAware
18:38 42.3550 -80.0380 103° East 466 536 37,000  Level FlightAware
18:39 42.3350 -79.9250 103° East 462 532 37,000  Level FlightAware
18:39 42.3180 -79.8280 103° East 462 532 37,000  Level FlightAware
18:40 42.2980 -79.7190 104° East 461 531 37,000  Level FlightAware
18:40 42.2800 -79.6170 103° East 460 529 37,000  Level FlightAware
18:41 42.2650 -79.5340 104° East 459 528 37,000  Level FlightAware
18:42 42.2470 -79.4350 104° East 459 528 37,000  Level FlightAware
18:42 42.2270 -79.3290 104° East 461 531 37,000  Level FlightAware
18:43 42.2110 -79.2430 104° East 462 532 37,000  Level FlightAware
18:43 42.1760 -79.1530 118° Southeast 458 527 37,000  Level FlightAware
18:44 42.1220 -79.0810 135° Southeast 456 525 37,000  Level FlightAware
18:45 42.0590 -79.0030 137° Southeast 458 527 37,000  Level FlightAware
18:45 42.0140 -78.9320 130° Southeast 463 533 37,000  Level FlightAware
18:46 41.9900 -78.8370 109° East 466 536 37,000  Level FlightAware
18:46 41.9770 -78.7310 99° East 467 537 37,000  Level FlightAware
18:47 41.9650 -78.6380 100° East 468 539 37,000  Level FlightAware
18:47 41.9530 -78.5390 99° East 468 539 37,000  Level FlightAware
18:48 41.9400 -78.4330 99° East 468 539 37,000  Level FlightAware
18:49 41.9290 -78.3440 99° East 469 540 37,000  Level FlightAware
18:49 41.9150 -78.2380 100° East 470 541 37,000  Level FlightAware
18:50 41.9020 -78.1350 100° East 470 541 37,000  Level FlightAware
18:50 41.8890 -78.0320 100° East 472 543 37,000  Level FlightAware
18:51 41.8760 -77.9370 100° East 472 543 37,000  Level FlightAware
18:52 41.8590 -77.8340 102° East 471 542 37,000  Level FlightAware
18:52 41.8340 -77.7320 108° East 471 542 37,000  Level FlightAware
18:53 41.8070 -77.6320 110° East 470 541 37,000  Level FlightAware
18:53 41.7840 -77.5450 109° East 471 542 37,000  Level FlightAware
18:54 41.7580 -77.4470 110° East 471 542 37,000  Level FlightAware
18:54 41.7320 -77.3490 110° East 471 542 37,000  Level FlightAware
18:55 41.7050 -77.2490 110° East 471 542 37,000  Level FlightAware
18:56 41.6820 -77.1630 110° East 470 541 37,000  Level FlightAware
18:56 41.6550 -77.0630 110° East 470 541 37,000  Level FlightAware
18:57 41.6310 -76.9750 110° East 471 542 37,000  Level FlightAware
18:57 41.6040 -76.8750 110° East 470 541 37,000  Level FlightAware
18:58 41.5820 -76.7960 110° East 470 541 37,000  Level FlightAware
18:58 41.5560 -76.7010 110° East 470 541 37,000  Level FlightAware
18:59 41.5260 -76.5910 110° East 469 540 37,000  Level FlightAware
19:00 41.5000 -76.4960 110° East 469 540 37,000  Level FlightAware
19:00 41.4740 -76.4050 111° Southeast 468 539 37,000  Level FlightAware
19:01 41.4470 -76.3060 110° East 466 536 37,000  Level FlightAware
19:01 41.4220 -76.2160 110° East 466 536 37,000  Level FlightAware
19:02 41.3940 -76.1180 111° Southeast 466 536 37,000 -480 Level FlightAware
19:03 41.3710 -76.0350 110° East 466 536 36,500 -1,920 Descending FlightAware
19:03 41.3410 -75.9300 111° Southeast 474 545 34,800 -3,120 Descending FlightAware
19:04 41.3130 -75.8290 110° East 487 560 32,800 -3,000 Descending FlightAware
19:04 41.2850 -75.7320 111° Southeast 485 558 31,300 -2,760 Descending FlightAware
19:05 41.2580 -75.6440 112° Southeast 464 534 29,700 -3,480 Descending FlightAware
19:05 41.2260 -75.5490 114° Southeast 459 528 27,400 -3,840 Descending FlightAware
19:06 41.1980 -75.4650 114° Southeast 449 517 25,200 -3,420 Descending FlightAware
19:07 41.1690 -75.3780 114° Southeast 433 498 23,500 -1,920 Descending FlightAware
19:07 41.1420 -75.2990 114° Southeast 397 457 23,000 -480 Descending FlightAware
19:08 41.1170 -75.2240 114° Southeast 381 438 23,000  Level FlightAware
19:08 41.0890 -75.1440 115° Southeast 378 435 23,000  Level FlightAware
19:09 41.0660 -75.0750 114° Southeast 378 435 23,000  Level FlightAware
19:10 41.0390 -74.9960 114° Southeast 380 437 23,000 -180 Level FlightAware
19:10 41.0150 -74.9240 114° Southeast 379 436 22,800 -660 Descending FlightAware
19:11 40.9950 -74.8520 110° East 379 436 22,300 -780 Descending FlightAware
19:11 40.9880 -74.7950 99° East 376 433 21,900 -900 Descending FlightAware
19:12 40.9890 -74.6990 89° East 372 428 21,300 -1,080 Descending FlightAware
19:13 40.9820 -74.6060 96° East 370 426 20,700 -840 Descending FlightAware
19:13 40.9710 -74.5240 100° East 365 420 20,300 -660 Descending FlightAware
19:14 40.9620 -74.4610 101° East 362 417 20,000 -720 Descending FlightAware
19:14 40.9510 -74.3800 100° East 359 413 19,500 -840 Descending FlightAware
19:15 40.9410 -74.3110 101° East 357 411 19,100 -600 Descending FlightAware
19:15 40.9334 -74.2617 102° East 354 407 19,000 -120 Descending FlightAware ADS-B
19:16 40.9158 -74.1506 102° East 359 413 19,000  Level FlightAware ADS-B
19:16 40.9095 -74.1295 112° Southeast 358 412 19,000  Level FlightAware ADS-B
19:17 40.8868 -74.0706 117° Southeast 362 417 19,000 -420 Level FlightAware ADS-B
19:17 40.8627 -74.0084 117° Southeast 360 414 18,600 -1,200 Descending FlightAware ADS-B
19:18 40.8398 -73.9492 117° Southeast 355 409 17,800 -1,500 Descending FlightAware ADS-B
19:18 40.8120 -73.8790 118° Southeast 347 399 16,900 -1,440 Descending FlightAware
19:19 40.7860 -73.8150 118° Southeast 342 394 16,100 -1,380 Descending FlightAware
19:20 40.7580 -73.7430 117° Southeast 334 384 15,200 -1,440 Descending FlightAware
19:20 40.7310 -73.6780 119° Southeast 329 379 14,300 -1,500 Descending FlightAware
19:21 40.7060 -73.6220 120° Southeast 323 372 13,500 -1,440 Descending FlightAware
19:21 40.6910 -73.6020 135° Southeast 325 374 13,200 -1,500 Descending FlightAware
19:22 40.6390 -73.5700 155° Southeast 324 373 12,200 -1,620 Descending FlightAware
19:22 40.5920 -73.5430 156° South 320 368 11,300 -1,500 Descending FlightAware
19:23 40.5450 -73.5190 159° South 318 366 10,500 -1,380 Descending FlightAware
19:23 40.5050 -73.5250 187° South 311 358 9,900 -1,500 Descending FlightAware
19:24 40.4790 -73.5400 204° Southwest 312 359 9,300 -1,680 Descending FlightAware
19:24 40.4530 -73.5560 205° Southwest 311 358 8,800 -1,380 Descending FlightAware
19:24 40.4340 -73.5670 204° Southwest 308 354 8,500 -1,080 Descending FlightAware
19:24 40.4080 -73.5820 204° Southwest 305 351 8,200 -1,080 Descending FlightAware
19:25 40.3900 -73.5920 203° Southwest 300 345 7,900 -1,080 Descending FlightAware
19:25 40.3650 -73.6060 203° Southwest 292 336 7,600 -1,200 Descending FlightAware
19:25 40.3470 -73.6200 211° Southwest 283 326 7,200 -1,500 Descending FlightAware
19:25 40.3430 -73.6250 224° Southwest 279 321 7,100 -1,620 Descending FlightAware
19:26 40.3370 -73.6370 237° Southwest 273 314 6,800 -1,800 Descending FlightAware
19:26 40.3330 -73.6530 252° West 270 311 6,500 -1,800 Descending FlightAware
19:26 40.3320 -73.6700 266° West 267 307 6,200 -2,220 Descending FlightAware
19:26 40.3310 -73.7070 268° West 265 305 5,400 -2,220 Descending FlightAware
19:27 40.3310 -73.7330 270° West 260 299 4,900 -1,680 Descending FlightAware
19:27 40.3300 -73.7630 268° West 253 291 4,400 -1,680 Descending FlightAware
19:27 40.3360 -73.8030 281° West 247 284 3,600 -1,740 Descending FlightAware
19:28 40.3440 -73.8210 300° West 247 284 3,200 -1,440 Descending FlightAware
19:28 40.3520 -73.8420 297° West 247 284 2,900 -600 Descending FlightAware
19:28 40.3660 -73.8730 301° West 239 275 2,800 -180 Descending FlightAware
19:28 40.3730 -73.8900 298° West 226 260 2,800  Level FlightAware
19:29 40.3840 -73.9150 300° West 209 241 2,800  Level FlightAware
19:29 40.3950 -73.9390 301° West 205 236 2,800  Level FlightAware
19:29 40.3990 -73.9450 311° West 206 237 2,800  Level FlightAware
19:29 40.4060 -73.9500 331° Northwest 202 232 2,800 300 Level FlightAware
19:30 40.4160 -73.9550 339° North 197 227 2,900  Climbing FlightAware
19:30 40.4370 -73.9630 344° North 196 226 2,800 -240 Descending FlightAware
19:30 40.4430 -73.9640 353° North 199 229 2,800  Level FlightAware
19:31 40.4670 -73.9640 360° North 204 235 2,800  Level FlightAware
19:31 40.4920 -73.9630 North 208 239 2,800  Level FlightAware
19:31 40.5020 -73.9630 360° North 204 235 2,800  Level FlightAware
19:32 40.5220 -73.9620 North 198 228 2,800  Level FlightAware
19:32 40.5290 -73.9600 12° North 193 222 2,800 -600 Level FlightAware
19:32 40.5400 -73.9530 26° Northeast 196 226 2,600 -720 Descending FlightAware
19:32 40.5570 -73.9400 30° Northeast 195 224 2,400 -900 Descending FlightAware
19:32 40.5670 -73.9320 31° Northeast 195 224 2,100 -1,020 Descending FlightAware
19:33 40.5850 -73.9170 32° Northeast 190 219 1,800 -720 Descending FlightAware
19:33 40.5940 -73.9090 34° Northeast 192 221 1,700 -780 Descending FlightAware
19:33 40.6090 -73.8970 31° Northeast 192 221 1,400 -840 Descending FlightAware
19:34 40.6220 -73.8870 30° Northeast 175 201 1,200 -720 Descending FlightAware
19:34 40.6380 -73.8750 30° Northeast 153 176 900 -780 Descending FlightAware
19:34 40.6510 -73.8650 30° Northeast 150 173 600 -660 Descending FlightAware
19:35 40.6550 -73.8610 37° Northeast 152 175 600 -300 Level FlightAware
19:35 40.6610 -73.8520 49° Northeast 153 176 500 -600 Descending FlightAware
19:35 40.6640 -73.8460 57° Northeast 148 170 400 -420 Descending FlightAware
19:35 40.6660 -73.8390 69° East 142 163 400  Level FlightAware
19:35 40.6670 -73.8290 82° East 145 167 400 -240 Level FlightAware
19:36 40.6660 -73.8120 94° East 139 160 300 -480 Descending FlightAware
19:36 40.6640 -73.8060 114° Southeast 136 157 200 -900 Descending FlightAware
19:36 40.6580 -73.7920 119° Southeast 135 155 -600 Descending FlightAware
19:36 40.6520 -73.7770 118° Southeast 115 132  Level FlightAware